TimeEDT,TemperatureF,Dew PointF,Humidity,Sea Level PressureIn,VisibilityMPH,Wind Direction,Wind SpeedMPH,Gust SpeedMPH,PrecipitationIn,Events,Conditions,WindDirDegrees,DateUTC
12:53 AM,52.0,30.9,45,30.15,10.0,Calm,Calm,-,N/A,,Clear,0,2013-05-26 04:53:00
1:53 AM,50.0,32.0,50,30.15,10.0,Calm,Calm,-,N/A,,Clear,0,2013-05-26 05:53:00
2:53 AM,48.9,32.0,52,30.15,10.0,Calm,Calm,-,N/A,,Clear,0,2013-05-26 06:53:00
3:53 AM,48.9,33.1,54,30.14,10.0,Calm,Calm,-,N/A,,Clear,0,2013-05-26 07:53:00
4:53 AM,48.0,33.1,56,30.15,10.0,Calm,Calm,-,N/A,,Clear,0,2013-05-26 08:53:00
5:53 AM,48.0,32.0,54,30.17,10.0,Calm,Calm,-,N/A,,Clear,0,2013-05-26 09:53:00
6:53 AM,48.0,32.0,54,30.19,10.0,Calm,Calm,-,N/A,,Clear,0,2013-05-26 10:53:00
7:53 AM,50.0,33.1,52,30.19,10.0,Variable,5.8,-,N/A,,Clear,0,2013-05-26 11:53:00
8:53 AM,53.1,35.1,50,30.20,10.0,Variable,3.5,-,N/A,,Clear,0,2013-05-26 12:53:00
9:53 AM,55.9,35.1,45,30.19,10.0,Variable,3.5,-,N/A,,Clear,0,2013-05-26 13:53:00
10:53 AM,57.9,34.0,41,30.18,10.0,WSW,8.1,-,N/A,,Clear,250,2013-05-26 14:53:00
11:53 AM,61.0,34.0,36,30.18,10.0,Variable,4.6,17.3,N/A,,Clear,0,2013-05-26 15:53:00
12:53 PM,64.0,34.0,33,30.17,10.0,Variable,5.8,19.6,N/A,,Clear,0,2013-05-26 16:53:00
1:53 PM,64.9,33.1,31,30.14,10.0,NW,8.1,17.3,N/A,,Clear,320,2013-05-26 17:53:00
2:53 PM,66.9,30.9,26,30.14,10.0,Variable,6.9,-,N/A,,Clear,0,2013-05-26 18:53:00
3:53 PM,68.0,33.1,27,30.13,10.0,NW,10.4,19.6,N/A,,Clear,310,2013-05-26 19:53:00
4:53 PM,69.1,34.0,27,30.12,10.0,West,9.2,16.1,N/A,,Clear,280,2013-05-26 20:53:00
5:53 PM,69.1,34.0,27,30.13,10.0,Variable,4.6,-,N/A,,Clear,0,2013-05-26 21:53:00
6:53 PM,68.0,33.1,27,30.13,10.0,West,6.9,-,N/A,,Clear,270,2013-05-26 22:53:00
7:53 PM,66.9,33.1,28,30.14,10.0,Calm,Calm,-,N/A,,Clear,0,2013-05-26 23:53:00
8:53 PM,62.1,35.1,37,30.16,10.0,Calm,Calm,-,N/A,,Clear,0,2013-05-27 00:53:00
9:53 PM,54.0,37.9,55,30.19,10.0,Calm,Calm,-,N/A,,Clear,0,2013-05-27 01:53:00
10:53 PM,55.9,35.1,45,30.21,10.0,Calm,Calm,-,N/A,,Clear,0,2013-05-27 02:53:00
11:53 PM,51.1,37.0,59,30.22,10.0,Calm,Calm,-,N/A,,Clear,0,2013-05-27 03:53:00